Location: Newark
(48.4000°N, 4.0833°W)
Time: 01:43:48
(UTC+00:00)

Envisat - Visible Passes

Search period start: 21 November 2019 00:00
Search period end: 01 December 2019 00:00
Orbit: 764 x 766 km, 98.1° (Epoch: 20 November)

Date Brightness Start Highest point End Pass type
(mag) Time Alt. Az. Time Alt. Az. Time Alt. Az.
21 Nov 5.1 06:26:32 10° NNE 06:31:03 31° E 06:35:31 10° SSE visible
21 Nov 3.0 17:44:30 10° SSE 17:49:29 58° ENE 17:54:29 10° N visible
21 Nov 5.5 19:25:06 10° SW 19:28:54 21° W 19:32:43 10° NW visible
22 Nov 6.0 05:50:55 10° NE 05:53:52 15° E 05:56:50 10° ESE visible
22 Nov 3.7 17:08:34 10° ESE 17:12:56 30° ENE 17:17:20 10° N visible
22 Nov 4.2 18:47:01 10° SSW 18:51:49 42° W 18:56:39 10° NNW visible
23 Nov 4.1 06:51:43 10° NNE 06:56:42 51° E 07:01:38 10° S visible
23 Nov 3.0 18:09:51 10° SSE 18:14:56 86° WSW 18:20:04 10° NNW visible
23 Nov 6.1 19:52:36 10° WSW 19:54:44 12° W 19:56:52 10° WNW visible
24 Nov 5.5 06:15:29 10° NE 06:19:40 25° E 06:23:50 10° SSE visible
24 Nov 3.2 17:33:24 10° SE 17:38:15 48° ENE 17:43:08 10° N visible
24 Nov 5.1 19:13:19 10° SSW 19:17:30 26° W 19:21:44 10° NW visible
25 Nov 6.2 05:40:24 10° ENE 05:42:27 12° E 05:44:28 10° ESE visible
25 Nov 4.0 16:57:41 10° ESE 17:01:46 25° ENE 17:05:52 10° N visible
25 Nov 3.8 18:35:33 10° S 18:40:29 52° W 18:45:29 10° NNW visible
26 Nov 4.5 06:40:33 10° NNE 06:45:23 41° E 06:50:09 10° SSE visible
26 Nov 2.9 17:58:36 10° SSE 18:03:40 78° ENE 18:08:46 10° NNW visible
26 Nov 5.8 19:40:17 10° SW 19:43:18 16° W 19:46:20 10° NW visible
27 Nov 5.8 06:04:30 10° NE 06:08:18 21° E 06:12:03 10° SE visible
27 Nov 3.4 17:22:21 10° SE 17:27:03 39° ENE 17:31:45 10° N visible
27 Nov 4.8 19:01:38 10° SSW 19:06:08 32° W 19:10:41 10° NNW visible
28 Nov 3.5 07:05:52 10° NNE 07:10:58 69° ESE 07:16:02 10° S visible
28 Nov 3.4 18:24:09 10° S 18:29:11 65° WSW 18:34:16 10° NNW visible
29 Nov 4.9 06:29:24 10° NNE 06:34:01 34° E 06:38:36 10° SSE visible
29 Nov 2.9 17:47:25 10° SSE 17:52:25 63° ENE 17:57:27 10° N visible
29 Nov 5.6 19:28:16 10° SW 19:31:54 19° W 19:35:32 10° NW visible
30 Nov 6.0 05:53:38 10° NE 05:56:53 17° E 06:00:05 10° SE visible
30 Nov 3.7 17:11:23 10° SE 17:15:51 32° ENE 17:20:20 10° N visible
30 Nov 4.4 18:50:04 10° SSW 18:54:47 39° W 18:59:33 10° NNW visible
